Flag for Chile Weather past 2 weeks in Iquique, Chile

Now
59 °F

Overcast.


Feels Like: 59 °F
Forecast: 59 / 69 °F
Wind: No wind

Location: Iquique / Diego Arac

Current Time: Aug 31, 2014 at 12:40:32 AM

Latest Report: Aug 31, 2014 at 12:00 AM


Visibility: 3 mi

Pressure: 30.04 "Hg

Humidity: 82%

Dew point: 54 °F

Location of IquiqueLocation

Historic Weather in Iquique — Graph

°F

Iquique temperature yesterday

Maximum temperature yesterday: 64 °F (at 10:00 AM)
Minimum temperature yesterday: 57 °F (at 5:00 AM)
Average temperature yesterday: 60 °F

Past Weeks' High & Low Weather Summary

 TemperatureHumidityPressure
High68 °F (Aug 22, 12:00 PM)83% (Aug 27, 11:00 AM)30.12 "Hg (Aug 27, 11:00 AM)
Low52 °F (Aug 25, 7:00 AM)46% (Aug 22, 12:00 PM)29.86 "Hg (Aug 17, 4:00 PM)
Average60 °F68%30.01 "Hg
* Reported Aug 15 11:00 PM — Aug 30 11:00 PM, Iquique, Weather by CustomWeather, © 2014

Note: Actual official high and low records may vary slightly from our data, if they occured in-between our weather recording intervals... More about our weather records

Advertising

Iquique weather history for previous 24 hours

 ConditionsComfort  
Time TempWeatherWind HumidityBarometerVisibility
11:00 PM
Aug 30
59 °FPassing clouds.8 mph82%30.04 "Hg3 mi
10:00 PM59 °FOvercast.12 mph82%30.01 "Hg3 mi
9:00 PM59 °FOvercast.8 mph82%30.01 "Hg3 mi
8:00 PM59 °FHaze.7 mph82%30.01 "Hg3 mi
7:00 PM59 °FHaze.15 mph82%29.95 "Hg3 mi
6:00 PM61 °FPassing clouds.16 mph77%29.98 "Hg2 mi
5:00 PM61 °FScattered clouds.22 mph77%29.95 "Hg2 mi
4:00 PM61 °FPartly sunny.22 mph77%29.98 "Hg3 mi
3:00 PM63 °FHaze.18 mph73%29.98 "Hg3 mi
2:00 PM63 °FHaze.21 mph73%29.98 "Hg3 mi
1:00 PM63 °FHaze.21 mph73%30.01 "Hg3 mi
12:00 PM63 °FClear.17 mph68%30.01 "Hg6 mi
11:00 AM63 °FClear.14 mph73%30.04 "Hg6 mi
10:00 AM64 °FClear.7 mph64%30.04 "Hg6 mi
9:00 AM61 °FClear.18 mph77%30.04 "Hg5 mi
8:00 AM59 °FClear.14 mph77%30.01 "Hg5 mi
7:00 AM59 °FClear.14 mph77%30.04 "Hg4 mi
6:00 AM57 °FSunny.9 mph82%30.04 "Hg4 mi
5:00 AM57 °FClear.6 mph82%30.04 "Hg4 mi
4:00 AM59 °FClear.14 mph77%30.04 "Hg6 mi
3:00 AM59 °FOvercast.18 mph77%30.09 "Hg6 mi
2:00 AM61 °FOvercast.12 mph72%30.09 "Hg6 mi
1:00 AM61 °FOvercast.15 mph72%30.12 "Hg6 mi
12:00 AM61 °FPassing clouds.14 mph72%30.09 "Hg6 mi
Weather by CustomWeather, © 2014

See weather overviewHow to use our weather pages